  +46.5  347    -10.6

2003 11  3  10 00 00   21 16 58.3   -08 16 15     0.04842   13.7   700.9/264.3  

  +46.8    9    -22.8

2003 11  3  11 00 00   21 15 00.9   -08 19 09     0.04836   13.7   701.1/264.4  

  +42.4   30    -35.2

2003 11  3  12 00 00   21 13 03.3   -08 22 00     0.04831   13.7   700.0/264.4  

  +34.3   47    -47.3

2003 11  3  13 00 00   21 11 05.9   -08 24 49     0.04826   13.7   697.9/264.5  

  +24.0   60    -58.6

2003 11  3  14 00 00   21 09 08.9   -08 27 34     0.04821   13.7   695.4/264.6  

  +12.4   71    -67.6

2003 11  3  15 00 00   21 07 12.2   -08 30 17     0.04817   13.8   692.4/264.6  

  + 0.0   80    -70.4

                               .                   .          .       .     .   

     .             . 

2003 11  4  09 00 00   20 32 05.8   -09 15 24     0.04785   14.1   716.7/265.9  

  +46.1    5    -10.7

2003 11  4  10 00 00   20 30 05.1   -09 17 30     0.04786   14.1   714.5/266.1  

  +42.6   26    -23.0

2003 11  4  11 00 00   20 28 04.7   -09 19 32     0.04789   14.1   711.5/266.2  

  +35.2   44    -35.3

2003 11  4  12 00 00   20 26 04.8   -09 21 29     0.04792   14.1   707.3/266.3  

  +25.3   57    -47.5

2003 11  4  13 00 00   20 24 05.6   -09 23 23     0.04795   14.2   702.3/266.3  

  +13.9   68    -58.8

2003 11  4  14 00 00   20 22 07.1   -09 25 14     0.04799   14.2   697.2/266.4  

  + 1.7   77    -67.9

                               .                   .          .       .     .   

     .             . 

2003 11  5  09 00 00   19 45 41.6   -09 54 19     0.04916   14.7   677.6/267.9  

  +43.0   22    -10.9

2003 11  5  10 00 00   19 43 47.0   -09 55 21     0.04926   14.7   672.5/268.0  

  +36.3   40    -23.1

2003 11  5  11 00 00   19 41 53.3   -09 56 19     0.04937   14.7   666.8/268.1  

  +26.9   54    -35.5

2003 11  5  12 00 00   19 40 00.5   -09 57 13     0.04948   14.8   660.3/268.2  

  +15.9   66    -47.7

2003 11  5  13 00 00   19 38 08.8   -09 58 04     0.04959   14.8   653.2/268.3  

  + 3.8   75    -59.1

                               .                   .          .       .     .   

     .             . 

2003 11  6  09 00 00   19 03 07.0   -10 09 11     0.05230   15.5   598.5/269.7  

  +38.1   36    -11.0

2003 11  6  10 00 00   19 01 25.6   -10 09 17     0.05247   15.5   591.9/269.8  

  +29.3   51    -23.3

2003 11  6  11 00 00   18 59 45.4   -10 09 21     0.05264   15.5   584.9/269.9  

  +18.7   63    -35.6

2003 11  6  12 00 00   18 58 06.4   -10 09 21     0.05282   15.6   577.4/270.0  

  + 6.9   73    -47.8

                               .                   .          .       .     .   

     .             . 

2003 11  7  09 00 00   18 26 18.7   -10 05 44     0.05695   16.3   505.0/271.3  

  +32.7   46    -11.2

2003 11  7  10 00 00   18 24 53.2   -10 05 14     0.05718   16.4   498.2/271.4  

  +22.6   59    -23.4

2003 11  7  11 00 00   18 23 28.9   -10 04 42     0.05741   16.4   491.1/271.5  

  +11.2   69    -35.8

2003 11  7  12 00 00   18 22 05.8   -10 04 09     0.05765   16.5   483.8/271.6  

  - 1.0   78    -48.0

                               .                   .          .       .     .   

     .             . 

2003 11  8  09 00 00   17 55 38.0   -09 51 30     0.06280   17.3   416.1/272.6  

  +27.4   54    -11.3

2003 11  8  10 00 00   17 54 27.7   -09 50 42     0.06308   17.4   409.7/272.7  

  +16.5   65    -23.6

2003 11  8  11 00 00   17 53 18.5   -09 49 53     0.06335   17.4   403.3/272.8  

  + 4.6   75    -35.9

                               .                   .          .       .     .   

     .             . 

2003 11  9  09 00 00   17 30 29.0   -09 32 29     0.06957   18.3   340.1/273.6  

  +22.6   60    -11.5

2003 11  9  10 00 00   17 29 31.6   -09 31 35     0.06987   18.4   334.4/273.7  

  +11.2   70    -23.7

2003 11  9  11 00 00   17 28 35.2   -09 30 41     0.07018   18.4   328.9/273.8  

  - 0.9   79    -36.1



NAKANO

         **** Don't distribute anyone except personal use only ****

                (C) Copyright 2003 OAA/ComputingSection

write mail from CFAD0::NAKANO on 2003-11-03 03:10:26(JST).

 

◎1937 UBの軌道と予報位置です



 すでにMPEC,IAUCで報じられているとおり,1937年出現のヘルメスが再発見

されました.報告された観測から,2つの出現を結ぶ軌道の決定を試みました

が,1937年当時,地球に大きく接近しているために,観測を秒単位で表現する

軌道がまだ求まりませんので,とりあえず,観測と残差のチェックのために次

の軌道を計算しました.なお,過去の出現が見つかれば,正しい連結軌道が計

算できるでしょう.この軌道では,1937年出現時に,この小惑星は,1937年10

月31.4日に地球に0.0066 AU,10月31.6日に月に0.0080 AUまで接近したことに

なります.



1937 UB (Hermes)                                                    

Epoch 2003 Dec. 27.0 TT = JDT 2453000.5  

T 2003 Dec. 23.11725 TT                                 Nakano

q   0.6219185            (2000.0)            P               Q

n   0.46282298     Peri.   92.39555     -0.59740780     -0.79969678

a   1.6552342      Node    34.51596     +0.68733375     -0.54908722

e   0.6242716      Incl.    6.06899     +0.41312980     -0.24287504

P   2.13



Epoch 1937 Dec. 13.0 TT = JDT 2428880.5  

T 1937 Dec. 19.456 TT                                 Nakano

q   0.62077              (2000.0)            P               Q

n   0.463962       Peri.   90.806       -0.594554       -0.801655  

a   1.65252        Node    35.910       +0.689180       -0.547865  

e   0.62435        Incl.    6.077       +0.414169       -0.239151  

P   2.12

From 90 observations 1937-2003, weighting mean residual 0".52.

 

Date/        TT  R.A.(2000) Decl.     Delta   r     Daily motion  Mag.  Moon Age

              h    h  m       。  ,                      ,  / PA 。  V       。

2003 Oct. 15 12  01 44.99  +02 43.9   0.205  1.200    42.5 / 257  14.8   54  .78

          16 12  01 42.22  +02 34.6   0.194  1.190    47.4 / 258  14.6   66  .69

          17 12  01 39.13  +02 24.3   0.184  1.179    53.1 / 258  14.5   79  .60

          18 12  01 35.67  +02 13.2   0.174  1.169    59.7 / 258  14.3   92  .50

          19 12  01 31.77  +02 00.8   0.164  1.159    67.3 / 258  14.2  105  .40

          20 12  01 27.37  +01 47.2   0.154  1.148    76.4 / 259  14.1  119  .30

          21 12  01 22.38  +01 32.0   0.144  1.138    87.1 / 259  14.0  134  .21

          22 12  01 16.68  +01 14.9   0.135  1.127   100.1 / 259  13.9  149  .13

          23 12  01 10.13  +00 55.6   0.125  1.117   115.8 / 259  13.8  165  .06

          24 12  01 02.56  +00 33.6   0.116  1.106   135.1 / 259  13.7  177  .02

          25 12  00 53.71  +00 08.3   0.107  1.095   159.0 / 259  13.6  161  .00

          26 12  00 43.29  -00 21.2   0.098  1.085   189.0 / 259  13.5  143  .01

          27 12  00 30.91  -00 55.7   0.089  1.074   226.8 / 260  13.4  125  .06

          28 12  00 16.03  -01 36.4   0.081  1.064   274.7 / 260  13.3  107  .13

          29 12  23 57.99  -02 24.8   0.073  1.053   335.0 / 260  13.2   88  .21

          30 12  23 35.96  -03 22.1   0.066  1.042   409.1 / 260  13.1   68  .32

          31 12  23 09.00  -04 29.1   0.060  1.032   495.4 / 261  13.1   48  .43

     Nov.  1 12  22 36.22  -05 44.8   0.055  1.021   585.6 / 262  13.1   27  .53

           2 12  21 57.30  -07 04.8   0.051  1.010   661.4 / 263  13.2   11  .64

           3 12  21 13.10  -08 20.2   0.048  0.999   698.5 / 264  13.5   24  .73

           4 12  20 26.14  -09 19.7   0.048  0.989   682.1 / 266  13.9   47  .82

           5 12  19 40.07  -09 55.5   0.049  0.978   619.0 / 268  14.6   70  .89

           6 12  18 58.18  -10 07.8   0.053  0.967   531.9 / 270  15.4   92  .94

           7 12  18 22.16  -10 02.8   0.058  0.957   442.5 / 271  16.3  112  .98

           8 12  17 52.23  -09 47.8   0.064  0.946   363.1 / 273  17.2  130 1.00

           9 12  17 27.72  -09 28.7   0.070  0.936   297.4 / 273  18.2  147 1.00

          10 12  17 07.67  -09 08.7   0.078  0.925   244.8 / 274  19.3  160  .98

          11 12  16 51.19  -08 49.8   0.086  0.914   203.3 / 275  20.3  164  .95

          12 12  16 37.53  -08 32.6   0.095  0.904   170.5 / 275  21.3  156  .90

          13 12  16 26.09  -08 17.4   0.103  0.893   144.3 / 275  22.3  143  .83

          14 12  16 16.41  -08 04.3   0.112  0.883   123.3 / 275  23.3  130  .76

          15 12  16 08.15  -07 53.2   0.122  0.873   106.2 / 275  24.3  116  .67

NAKANO

         **** Don't distribute anyone except personal use only ****

                (C) Copyright 2003 OAA/ComputingSection

write mail from CFAD0::NAKANO on 2003-10-17 02:34:16(JST).

 

戻ります。